Volver al catálogo

GALILEO 26

2C2

ActivoNavegaciónMEO
NORAD 43565·PAYLOAD·🇪🇺 EU

Lanzado Jul 25, 2018 desde Guiana Space Centre

Loading…

Próximos Pases (próximas 24 horas)

TLE

ActualizadoSource: CelesTrak SupGP

Época: Sep 13, 2026, 23:59 UTC

1 43565C 18060B   26256.99979167  .00000000  00000+0  00000+0 0  2560
2 43565  57.1368 339.3861 0004784 242.5987 203.8805  1.70476326    11

Sigue GALILEO 26 en tiempo real con AllMySat

Download on the App Store